GW5466 Weather Reports


time (UTC)temp
C
wind
direction
speed
KPH
gust
KPH
rain 1hr
cm
rain 24hr
cm
rain mn
cm
humidity
%
barometer
mb
20260906180959 36 280 1.6 3.2 0.00 0.00 0.00 45 1013.2
20260906180719 36 61 1.6 6.4 0.00 0.00 0.00 45 1013.3
20260906180445 37 337 4.8 4.8 0.00 0.00 0.00 45 1013.6
20260906175429 37 25 0.0 3.2 0.00 0.00 0.00 44 1013.3
20260906175121 37 316 0.0 3.2 0.00 0.00 0.00 44 1013.4
20260906174359 37 268 1.6 6.4 0.00 0.00 0.00 44 1013.8
20260906173859 36 13 0.0 4.8 0.00 0.00 0.00 48 1013.8
20260906173329 36 269 0.0 4.8 0.00 0.00 0.00 46 1013.8
20260906173244 36 0 0.0 4.8 0.00 0.00 0.00 47 1014.1
20260906172259 36 235 3.2 4.8 0.00 0.00 0.00 47 1014.1
20260906171729 35 255 3.2 4.8 0.00 0.00 0.00 49 1014.1
20260906171159 36 340 1.6 3.2 0.00 0.00 0.00 48 1014.4
20260906170629 36 290 3.2 3.2 0.00 0.00 0.00 47 1014.2
20260906170129 36 307 1.6 3.2 0.00 0.00 0.00 47 1014.3
20260906165559 36 261 1.6 6.4 0.00 0.00 0.00 46 1014.5
20260906165059 36 0 1.6 4.8 0.00 0.00 0.00 47 1014.6
20260906164529 36 322 3.2 4.8 0.00 0.00 0.00 49 1014.3
20260906163959 36 338 0.0 6.4 0.00 0.00 0.00 51 1014.7
20260906163459 35 290 1.6 3.2 0.00 0.00 0.00 51 1014.7
20260906162959 36 309 0.0 3.2 0.00 0.00 0.00 49 1014.7
20260906162650 36 288 3.2 6.4 0.00 0.00 0.00 49 1014.6
20260906161859 35 230 1.6 8.0 0.00 0.00 0.00 50 1014.5
20260906161329 35 299 1.6 4.8 0.00 0.00 0.00 50 1014.5
20260906161317 35 256 1.6 3.2 0.00 0.00 0.00 53 1014.5
20260906160548 35 21 3.2 4.8 0.00 0.00 0.00 53 1014.6
20260906160049 35 75 1.6 4.8 0.00 0.00 0.00 52 1014.5
20260906155259 34 333 3.2 4.8 0.00 0.00 0.00 53 1014.6
20260906154759 34 356 4.8 4.8 0.00 0.00 0.00 54 1014.3
20260906154259 33 43 3.2 6.4 0.00 0.00 0.00 55 1014.5
20260906153729 33 325 6.4 6.4 0.00 0.00 0.00 53 1014.3
20260906153229 33 62 0.0 4.8 0.00 0.00 0.00 54 1014.2
20260906152659 33 82 3.2 4.8 0.00 0.00 0.00 54 1014.5
20260906152129 33 32 0.0 4.8 0.00 0.00 0.00 57 1014.4
20260906151629 33 351 3.2 6.4 0.00 0.00 0.00 57 1014.3
20260906151059 33 70 6.4 6.4 0.00 0.00 0.00 57 1014.2
20260906150529 32 28 4.8 9.7 0.00 0.00 0.00 56 1014.4
20260906150029 33 306 3.2 6.4 0.00 0.00 0.00 57 1014.3
20260906145529 32 322 0.0 3.2 0.00 0.00 0.00 57 1014.2
20260906145221 32 327 3.2 4.8 0.00 0.00 0.00 59 1014.7
20260906144459 32 339 3.2 6.4 0.00 0.00 0.00 57 1014.7
20260906143959 32 279 1.6 3.2 0.00 0.00 0.00 58 1014.6
20260906143429 32 4 4.8 6.4 0.00 0.00 0.00 58 1014.4
20260906142929 31 70 1.6 8.0 0.00 0.00 0.00 59 1014.7
20260906142620 31 356 1.6 4.8 0.00 0.00 0.00 60 1014.7
20260906142048 31 322 0.0 6.4 0.00 0.00 0.00 61 1014.8
20260906141259 31 86 0.0 4.8 0.00 0.00 0.00 60 1014.7
20260906140759 31 232 1.6 3.2 0.00 0.00 0.00 62 1014.5
20260906140259 30 6 0.0 6.4 0.00 0.00 0.00 62 1014.4
20260906135759 30 338 0.0 4.8 0.00 0.00 0.00 62 1014.4
20260906135448 30 3 0.0 6.4 0.00 0.00 0.00 64 1014.4
20260906134729 29 24 3.2 8.0 0.00 0.00 0.00 64 1014.4
20260906134229 29 56 1.6 4.8 0.00 0.00 0.00 66 1014.6
20260906133729 29 68 4.8 4.8 0.00 0.00 0.00 65 1014.6
20260906133229 28 35 3.2 6.4 0.00 0.00 0.00 67 1014.3
20260906132700 28 327 3.2 4.8 0.00 0.00 0.00 68 1014.3
20260906132348 27 291 3.2 4.8 0.00 0.00 0.00 69 1014.1
20260906131600 27 102 3.2 4.8 0.00 0.00 0.00 71 1014.4
20260906131322 26 43 1.6 3.2 0.00 0.00 0.00 72 1014.2
20260906130600 26 155 0.0 3.2 0.00 0.00 0.00 73 1014.1
20260906130100 26 298 1.6 3.2 0.00 0.00 0.00 74 1014.2
20260906125530 26 346 3.2 3.2 0.00 0.00 0.00 74 1014.3
20260906125030 26 83 0.0 4.8 0.00 0.00 0.00 73 1013.9
20260906124459 26 321 1.6 6.4 0.00 0.00 0.00 73 1013.7
20260906124000 26 313 3.2 4.8 0.00 0.00 0.00 74 1013.8
20260906123500 26 107 1.6 4.8 0.00 0.00 0.00 74 1013.8
20260906123000 26 131 3.2 4.8 0.00 0.00 0.00 73 1013.7
20260906122430 26 278 3.2 4.8 0.00 0.00 0.00 74 1013.7
20260906121930 26 66 0.0 4.8 0.00 0.00 0.00 74 1013.6
20260906121430 26 56 4.8 4.8 0.00 0.00 0.00 74 1013.7
20260906120900 26 355 1.6 4.8 0.00 0.00 0.00 73 1013.4
20260906120400 26 36 1.6 4.8 0.00 0.00 0.00 73 1013.7
20260906115900 26 28 3.2 6.4 0.00 0.00 0.00 73 1013.5
20260906115400 25 354 4.8 9.7 0.00 0.00 0.00 73 1013.1
20260906114830 25 336 3.2 3.2 0.00 0.00 0.00 73 1013.3
20260906114300 25 359 1.6 4.8 0.00 0.00 0.00 73 1013.4
20260906113729 25 74 4.8 4.8 0.00 0.00 0.00 74 1013.2
20260906113200 25 180 0.0 4.8 0.00 0.00 0.00 73 1013.4
20260906112630 25 355 0.0 3.2 0.00 0.00 0.00 74 1013.2
20260906112130 25 156 4.8 4.8 0.00 0.00 0.00 73 1013.3
20260906111820 25 66 3.2 6.4 0.00 0.00 0.00 73 1013.1
20260906111100 26 343 3.2 3.2 0.00 0.00 0.00 73 1013.3
20260906110530 26 19 6.4 6.4 0.00 0.00 0.00 73 1013.1
20260906110029 26 347 3.2 9.7 0.00 0.00 0.00 73 1013.0
20260906105529 26 304 1.6 4.8 0.00 0.00 0.00 73 1013.1
20260906105000 25 68 6.4 6.4 0.00 0.00 0.00 74 1013.1
20260906104500 25 35 1.6 4.8 0.00 0.00 0.00 73 1013.0
20260906103959 25 135 1.6 6.4 0.00 0.00 0.00 73 1012.9
20260906103430 26 223 1.6 4.8 0.00 0.00 0.00 73 1012.9
20260906103151 26 63 1.6 3.2 0.00 0.00 0.00 73 1012.9
20260906102400 26 348 1.6 3.2 0.00 0.00 0.00 72 1012.8
20260906101900 26 170 3.2 3.2 0.00 0.00 0.00 72 1012.9
20260906101330 26 310 3.2 4.8 0.00 0.00 0.00 72 1012.8
20260906100830 25 15 4.8 6.4 0.00 0.00 0.00 72 1012.8
20260906100330 25 63 1.6 4.8 0.00 0.00 0.00 73 1012.8
20260906095830 25 341 0.0 4.8 0.00 0.00 0.00 73 1012.7
20260906095552 25 346 3.2 6.4 0.00 0.00 0.00 73 1012.6
20260906094829 25 5 3.2 4.8 0.00 0.00 0.00 73 1012.7
20260906094300 25 2 0.0 3.2 0.00 0.00 0.00 74 1012.6
20260906093759 25 44 0.0 0.0 0.00 0.00 0.00 75 1012.5
20260906093300 25 36 0.0 0.0 0.00 0.00 0.00 75 1012.6
20260906092730 25 13 0.0 3.2 0.00 0.00 0.00 76 1013.0
20260906092419 25 320 0.0 1.6 0.00 0.00 0.00 76 1012.8
20260906091630 25 23 0.0 1.6 0.00 0.00 0.00 77 1012.6
20260906091349 25 15 0.0 1.6 0.00 0.00 0.00 78 1012.8
20260906090630 25 325 0.0 1.6 0.00 0.00 0.00 78 1012.7
20260906090130 25 37 0.0 0.0 0.00 0.00 0.00 79 1012.3
20260906085629 25 27 0.0 1.6 0.00 0.00 0.00 78 1012.6
20260906085059 25 25 0.0 1.6 0.00 0.00 0.00 78 1012.6
20260906084600 25 29 0.0 1.6 0.00 0.00 0.00 77 1012.6
20260906084030 25 22 0.0 1.6 0.00 0.00 0.00 77 1012.5
20260906083459 25 44 0.0 1.6 0.00 0.00 0.00 77 1012.4
20260906082930 25 32 0.0 0.0 0.00 0.00 0.00 77 1012.4
20260906082400 25 44 0.0 1.6 0.00 0.00 0.00 76 1012.4
20260906081900 25 44 0.0 0.0 0.00 0.00 0.00 76 1012.4
20260906081330 25 44 0.0 1.6 0.00 0.00 0.00 75 1012.5
20260906080800 26 315 0.0 0.0 0.00 0.00 0.00 73 1012.1
20260906080259 26 309 0.0 0.0 0.00 0.00 0.00 74 1012.3
20260906075730 26 31 0.0 1.6 0.00 0.00 0.00 74 1012.3
20260906075421 26 43 1.6 1.6 0.00 0.00 0.00 72 1012.4
20260906074629 26 315 0.0 0.0 0.00 0.00 0.00 71 1012.1
20260906074322 26 326 0.0 0.0 0.00 0.00 0.00 70 1012.3
20260906073818 26 0 0.0 0.0 0.00 0.00 0.00 70 1012.0
20260906073100 26 333 0.0 0.0 0.00 0.00 0.00 69 1012.2
20260906072530 26 44 0.0 0.0 0.00 0.00 0.00 69 1012.2
20260906072000 27 44 0.0 0.0 0.00 0.00 0.00 69 1012.5
20260906071500 27 44 0.0 0.0 0.00 0.00 0.00 69 1012.2
20260906071000 27 333 0.0 0.0 0.00 0.00 0.00 69 1012.1
20260906070430 27 17 0.0 1.6 0.00 0.00 0.00 69 1012.3
20260906065929 27 25 0.0 0.0 0.00 0.00 0.00 69 1012.1
20260906065429 27 22 0.0 0.0 0.00 0.00 0.00 69 1012.4
20260906064900 27 336 0.0 0.0 0.00 0.00 0.00 68 1012.4
20260906064330 27 50 0.0 0.0 0.00 0.00 0.00 68 1012.3
20260906063800 27 347 0.0 0.0 0.00 0.00 0.00 68 1012.2
20260906063230 27 309 0.0 0.0 0.00 0.00 0.00 67 1012.6
20260906062922 27 315 0.0 0.0 0.00 0.00 0.00 67 1012.3
20260906062200 27 33 0.0 0.0 0.00 0.00 0.00 66 1012.7
20260906061700 27 45 0.0 1.6 0.00 0.00 0.00 66 1012.5
20260906061421 27 322 0.0 1.6 0.00 0.00 0.00 65 1012.7
20260906060630 27 333 0.0 1.6 0.00 0.00 0.00 65 1012.6
20260906060130 28 0 0.0 1.6 0.00 0.00 0.00 65 1012.4
20260906055822 28 22 0.0 1.6 0.00 0.00 0.00 64 1012.4
20260906055030 28 338 1.6 1.6 0.00 0.00 0.00 64 1012.5
20260906054751 28 326 0.0 1.6 0.00 0.00 0.00 65 1012.7
20260906053959 28 333 0.0 1.6 0.00 0.00 0.00 64 1012.8
20260906053652 28 322 0.0 0.0 0.00 0.00 0.00 64 1012.7
20260906052929 28 44 0.0 0.0 0.00 0.00 0.00 64 1012.6
20260906052400 28 25 0.0 1.6 0.00 0.00 0.00 64 1012.8
20260906051830 28 316 0.0 0.0 0.00 0.00 0.00 65 1012.8
20260906051300 28 315 0.0 0.0 0.00 0.00 0.00 64 1012.6
20260906050800 28 35 0.0 1.6 0.00 0.00 0.00 65 1012.6
20260906050519 28 315 0.0 1.6 0.00 0.00 0.00 65 1012.8
20260906045730 28 335 0.0 1.6 0.00 0.00 0.00 65 1012.5
20260906045159 28 333 0.0 1.6 0.00 0.00 0.00 65 1012.7
20260906044629 28 309 0.0 1.6 0.00 0.00 0.00 65 1012.7
20260906044130 28 32 0.0 0.0 0.00 0.00 0.00 65 1012.8
20260906043850 28 1 0.0 1.6 0.00 0.00 0.00 65 1012.9
20260906043100 28 339 0.0 0.0 0.00 0.00 0.00 64 1012.9
20260906042529 28 25 0.0 1.6 0.00 0.00 0.00 65 1012.8
20260906042029 28 343 0.0 1.6 0.00 0.00 0.00 66 1012.7
20260906041500 28 19 0.0 0.0 0.00 0.00 0.00 66 1012.6
20260906041413 28 354 0.0 0.0 0.00 0.00 0.00 66 1012.5
20260906040430 28 343 0.0 0.0 0.00 0.00 0.00 66 1012.6
20260906040150 28 293 0.0 0.0 0.00 0.00 0.00 65 1012.5
20260906035429 28 315 0.0 0.0 0.00 0.00 0.00 65 1012.4
20260906034929 29 6 0.0 0.0 0.00 0.00 0.00 65 1012.5
20260906034649 29 333 0.0 0.0 0.00 0.00 0.00 64 1012.4
20260906033929 29 15 0.0 1.6 0.00 0.00 0.00 64 1012.4
20260906033400 29 44 0.0 1.6 0.00 0.00 0.00 63 1012.4
20260906032900 29 336 0.0 0.0 0.00 0.00 0.00 63 1012.4
20260906032330 29 326 0.0 3.2 0.00 0.00 0.00 64 1012.4
20260906031800 29 35 1.6 1.6 0.00 0.00 0.00 65 1012.2
20260906031452 29 343 0.0 0.0 0.00 0.00 0.00 64 1012.3
20260906030730 29 345 0.0 0.0 0.00 0.00 0.00 64 1012.2
20260906030229 29 322 0.0 0.0 0.00 0.00 0.00 64 1012.2
20260906025659 29 333 0.0 1.6 0.00 0.00 0.00 63 1012.2
20260906025129 29 25 0.0 1.6 0.00 0.00 0.00 63 1011.7
20260906024630 29 356 0.0 3.2 0.00 0.00 0.00 63 1012.0
20260906024130 29 25 0.0 1.6 0.00 0.00 0.00 64 1011.7
20260906023559 29 339 0.0 3.2 0.00 0.00 0.00 64 1012.0
20260906023100 29 335 0.0 1.6 0.00 0.00 0.00 64 1011.6
20260906022530 30 8 0.0 1.6 0.00 0.00 0.00 64 1011.7
20260906022029 30 15 0.0 0.0 0.00 0.00 0.00 64 1011.4
20260906021530 30 333 0.0 1.6 0.00 0.00 0.00 63 1011.6
20260906021029 30 10 0.0 1.6 0.00 0.00 0.00 63 1011.5
20260906020530 30 33 0.0 3.2 0.00 0.00 0.00 63 1011.2
20260906020030 30 37 0.0 0.0 0.00 0.00 0.00 63 1011.3
20260906015530 30 315 0.0 1.6 0.00 0.00 0.00 62 1011.6
20260906014959 30 344 0.0 1.6 0.00 0.00 0.00 61 1011.4
20260906014459 30 343 0.0 1.6 0.00 0.00 0.00 61 1011.2
20260906013930 30 338 1.6 1.6 0.00 0.00 0.00 61 1011.4
20260906013429 30 333 0.0 1.6 0.00 0.00 0.00 62 1011.5
20260906012929 30 331 1.6 1.6 0.00 0.00 0.00 61 1011.2
20260906012400 31 327 1.6 1.6 0.00 0.00 0.00 60 1011.3
20260906011900 31 315 0.0 1.6 0.00 0.00 0.00 59 1011.2
20260906011329 31 315 0.0 1.6 0.00 0.00 0.00 58 1011.3
20260906010829 31 25 0.0 1.6 0.00 0.00 0.00 58 1011.4
20260906010330 31 316 0.0 1.6 0.00 0.00 0.00 57 1011.4
20260906005759 31 343 0.0 3.2 0.00 0.00 0.00 57 1011.2
20260906005300 32 304 1.6 1.6 0.00 0.00 0.00 56 1011.3
20260906004948 32 297 0.0 1.6 0.00 0.00 0.00 55 1011.1
20260906004230 32 309 0.0 0.0 0.00 0.00 0.00 55 1011.1
20260906003659 32 321 0.0 3.2 0.00 0.00 0.00 54 1011.2
20260906003159 32 326 0.0 3.2 0.00 0.00 0.00 54 1011.4
20260906002850 33 297 0.0 1.6 0.00 0.00 0.00 53 1011.3
20260906002129 33 315 0.0 3.2 0.00 0.00 0.00 53 1011.3
20260906001629 33 330 0.0 3.2 0.00 0.00 0.00 52 1011.1
20260906001059 33 333 0.0 3.2 0.00 0.00 0.00 52 1011.1
20260906000559 33 322 0.0 1.6 0.00 0.00 0.00 51 1010.9
20260906000059 33 336 0.0 3.2 0.00 0.00 0.00 51 1011.3
20260905235559 33 338 0.0 3.2 0.00 0.00 0.00 51 1011.0
20260905235029 34 329 0.0 1.6 0.00 0.00 0.00 50 1010.9
20260905234529 34 319 3.2 3.2 0.00 0.00 0.00 49 1011.0
20260905234030 34 359 3.2 3.2 0.00 0.00 0.00 48 1010.8
20260905233530 35 321 1.6 3.2 0.00 0.00 0.00 48 1011.3
20260905233444 35 352 4.8 6.4 0.00 0.00 0.00 48 1010.8
20260905232430 35 337 3.2 4.8 0.00 0.00 0.00 48 1010.7
20260905232120 35 321 0.0 3.2 0.00 0.00 0.00 47 1010.9
20260905231621 35 329 3.2 4.8 0.00 0.00 0.00 46 1010.8
20260905230859 35 341 0.0 6.4 0.00 0.00 0.00 46 1010.9
20260905230359 35 345 1.6 4.8 0.00 0.00 0.00 46 1010.9
20260905225829 36 324 6.4 8.0 0.00 0.00 0.00 44 1010.9
20260905225330 36 301 4.8 6.4 0.00 0.00 0.00 42 1010.9
20260905224829 37 0 0.0 3.2 0.00 0.00 0.00 36 1010.7
20260905224300 37 269 1.6 1.6 0.00 0.00 0.00 37 1010.6
20260905223759 37 352 1.6 3.2 0.00 0.00 0.00 35 1010.8
20260905223259 37 312 0.0 4.8 0.00 0.00 0.00 36 1010.7
20260905222759 37 281 3.2 3.2 0.00 0.00 0.00 38 1010.6
20260905222521 38 69 3.2 9.7 0.00 0.00 0.00 35 1010.7
20260905221759 38 311 1.6 4.8 0.00 0.00 0.00 34 1010.7
20260905221259 38 351 0.0 4.8 0.00 0.00 0.00 34 1011.0
20260905221020 38 306 1.6 3.2 0.00 0.00 0.00 33 1010.6
20260905220259 38 349 3.2 3.2 0.00 0.00 0.00 34 1010.9
20260905215729 38 326 1.6 3.2 0.00 0.00 0.00 35 1011.0
20260905215229 38 334 3.2 6.4 0.00 0.00 0.00 34 1011.1
20260905214918 38 321 1.6 3.2 0.00 0.00 0.00 35 1011.0
20260905214129 37 342 1.6 3.2 0.00 0.00 0.00 37 1011.3
20260905213559 38 310 1.6 4.8 0.00 0.00 0.00 36 1011.1
20260905213059 38 329 3.2 4.8 0.00 0.00 0.00 35 1011.2
20260905212748 38 307 3.2 4.8 0.00 0.00 0.00 35 1011.1
20260905212029 38 260 1.6 3.2 0.00 0.00 0.00 36 1011.3
20260905211459 37 311 3.2 3.2 0.00 0.00 0.00 36 1011.5
20260905210959 37 14 0.0 6.4 0.00 0.00 0.00 36 1011.4
20260905210459 37 255 0.0 3.2 0.00 0.00 0.00 38 1011.6
20260905205959 37 298 1.6 4.8 0.00 0.00 0.00 39 1011.5
20260905205429 37 261 0.0 3.2 0.00 0.00 0.00 40 1011.7
20260905204929 37 334 1.6 3.2 0.00 0.00 0.00 38 1011.5
20260905204359 37 294 0.0 3.2 0.00 0.00 0.00 36 1011.7
20260905203859 37 343 0.0 3.2 0.00 0.00 0.00 36 1011.8
20260905203551 37 44 0.0 4.8 0.00 0.00 0.00 36 1012.0
20260905202759 36 266 3.2 3.2 0.00 0.00 0.00 38 1011.9
20260905202259 36 260 3.2 3.2 0.00 0.00 0.00 39 1012.2
20260905201759 37 299 3.2 3.2 0.00 0.00 0.00 38 1012.2
20260905201743 38 296 1.6 4.8 0.00 0.00 0.00 37 1012.0
20260905200729 38 295 3.2 4.8 0.00 0.00 0.00 36 1012.2
20260905200451 39 271 4.8 4.8 0.00 0.00 0.00 37 1012.3
20260905195729 39 287 1.6 8.0 0.00 0.00 0.00 35 1012.0
20260905195159 38 2 1.6 1.6 0.00 0.00 0.00 36 1012.2
20260905194849 38 17 1.6 4.8 0.00 0.00 0.00 36 1012.3
20260905194059 38 225 6.4 6.4 0.00 0.00 0.00 37 1012.4
20260905193529 38 341 1.6 4.8 0.00 0.00 0.00 37 1012.5
20260905193029 38 295 1.6 4.8 0.00 0.00 0.00 37 1012.5
20260905192459 38 221 3.2 4.8 0.00 0.00 0.00 39 1012.6
20260905191959 38 333 3.2 6.4 0.00 0.00 0.00 37 1012.6
20260905191429 37 349 3.2 4.8 0.00 0.00 0.00 38 1012.4
20260905190929 37 19 3.2 4.8 0.00 0.00 0.00 43 1012.5
20260905190429 37 24 0.0 4.8 0.00 0.00 0.00 38 1012.6
20260905185929 37 323 1.6 4.8 0.00 0.00 0.00 38 1012.8
20260905185429 37 339 3.2 3.2 0.00 0.00 0.00 40 1012.9
20260905184929 38 293 0.0 4.8 0.00 0.00 0.00 39 1013.1
20260905184359 38 0 1.6 4.8 0.00 0.00 0.00 39 1012.8
20260905183859 37 232 1.6 4.8 0.00 0.00 0.00 42 1012.7
20260905183359 37 335 3.2 3.2 0.00 0.00 0.00 40 1013.0
20260905182859 36 316 3.2 3.2 0.00 0.00 0.00 44 1013.0
20260905182329 36 282 3.2 6.4 0.00 0.00 0.00 41 1013.2
20260905181759 37 294 4.8 4.8 0.00 0.00 0.00 40 1013.5